Meteo Giornale » Osservazioni meteo Italia » Messina

ore: 08:55 - Osservazioni Meteo Messina
Lat. 38° 12' N Lon. 15° 33' E Alt. 59 metri s.l.m.

nuvoloso Europe/Rome

26 °C

Nuvoloso

Temp. 24 Ore

24 °C

28 °C

Nord

5.5 Km/h

Dew point 22 °C

Umidità 78 %

Visibilità  10 Km

Il sole sorge alle ore 06:13

Il sole tramonta alle ore 19:50

Data e Ora Cielo e Fenomeni T °C DP °C Um. % Pres. hPa Vis. km Vento km/h
Oggi h: 08:55 nuvoloso Nuvoloso 26 22 78 1013 10 N 5.5
Oggi h: 07:55 poco_nuvoloso Poco Nuvoloso 24 21 83 1013 10 N 3.7
Oggi h: 06:55 poco_nuvoloso Poco Nuvoloso 24 21 83 1013 10 N 3.7
Oggi h: 03:55 poco_nuvoloso Poco Nuvoloso 25 22 83 1012 10 N 1.8
Oggi h: 01:55 poco_nuvoloso Poco Nuvoloso 25 22 83 1013 10 N 5.5
Oggi h: 00:55 poco_nuvoloso Poco Nuvoloso 25 22 83 1012 10 N 3.7
Ieri h: 23:55 poco_nuvoloso Poco Nuvoloso 25 22 83 1012 10 NO 7.4
Ieri h: 22:55 poco_nuvoloso Poco Nuvoloso 25 22 83 1012 10 N 5.5
Ieri h: 21:55 poco_nuvoloso Poco Nuvoloso 26 22 78 1012 10 N 1.8
Ieri h: 20:55 poco_nuvoloso Poco Nuvoloso 26 22 78 1012 10 N 3.7
Ieri h: 19:55 nuvoloso Nuvoloso 26 22 78 1012 10 N 5.5
Ieri h: 18:55 poco_nuvoloso Poco Nuvoloso 27 22 74 1012 10 N/NE 7.4
Ieri h: 17:55 nuvoloso Nuvoloso 28 21 65 1012 10 E/NE 11.1
Ieri h: 16:55 nuvoloso Nuvoloso 27 21 69 1012 10 N/NE 7.4
Ieri h: 15:55 nuvoloso Nuvoloso 28 21 65 1011 10 NE 11.1
Ieri h: 14:55 nuvoloso Nuvoloso 27 22 74 1012 10 NE 9.3
Ieri h: 13:55 nuvoloso Nuvoloso 28 22 69 1012 10 N/NE 9.3
Ieri h: 12:55 nuvoloso Nuvoloso 27 20 65 1012 10 N/NE 11.1
Ieri h: 11:55 nuvoloso Nuvoloso 28 21 65 1012 10 O/NO 14.8
Ieri h: 10:55 nuvoloso Nuvoloso 28 21 65 1012 10 NE 13
Ieri h: 09:55 poco_nuvoloso Poco Nuvoloso 27 21 69 1011 10 N/NO 7.4